sat.trackr.live / text

‹ back to catalog

STARLINK-32902

NORAD 62898 · 2025-024V

PAYLOAD ACTIVE UNKNOWN

§ Identity

Operator
Country
US
Launch date
2025-02-04
Launch site
AFETR
Launch vehicle
Mass (kg)
RCS (m²)

Purposes: comms

External: N2YO · Heavens-Above · Gunter

§ Orbital elements

Epoch: 2026-09-21T03:36:08.357472Z

Period
94.27 min
Inclination
43.0019°
Eccentricity
0.0001074
Mean motion
15.27599642 rev/d
Perigee alt
482.3 km
Apogee alt
483.7 km
Semi-major
6,861.1 km
B*
4.4589e-4
RAAN
301.1011°
Arg perigee
215.9113°
Mean anomaly
144.1667°
Rev number
9,216

§ Raw data

STARLINK-329021 62898U 25024V   26264.15009673  .00012035  00000+0  44589-3 0  99902 62898  43.0019 301.1011 0001074 215.9113 144.1667 15.27599642 92160

JSON: /api/v1/satellites/62898 · /tle

For live sub-satellite position, see the globe view (requires WebGL).

§ Visibility from observer

Set your observer location to see the next 7 days of passes ≥ 10°. The values pass through the URL so the page stays shareable.

No JS? Fill the form by hand. The geolocation button needs JavaScript.